Tracking 22287 objects as of 27-Jan-2021
HD Live streaming from Space Station
objects crossing your sky now

STARLINK-1406

Track STARLINK-1406 now!
10-day predictions
STARLINK-1406 is classified as:


NORAD ID: 45687
Int'l Code: 2020-035AG
Perigee: 555.7 km
Apogee: 558.0 km
Inclination: 53.0 °
Period: 95.6 minutes
Semi major axis: 6927 km
RCS: Unknown
Launch date: June 4, 2020
Source: United States (US)
Launch site: AIR FORCE EASTERN TEST RANGE (AFETR)
aabbcc
Your satellite tracking list
Your tracking list is empty




NASA's NSSDC Master Catalog

Two Line Element Set (TLE):
1 45687U 20035AG  21027.59002503 -.00000631  00000-0 -24151-4 0  9995
2 45687  52.9958 148.3585 0001636  98.6595 261.4579 15.05586136 37590
Source of the keplerian elements: AFSPC